Tracking 29892 objects as of 21-Nov-2024
HD Live streaming from Space Station
objects crossing your sky now

BREEZE-KM R/B

Track BREEZE-KM R/B now!
10-day predictions


NORAD ID: 40923
Int'l Code: 2015-050D
Perigee: 1,190.4 km
Apogee: 1,503.4 km
Inclination: 82.5 °
Period: 112.5 minutes
Semi major axis: 7717 km
RCS: Unknown
Launch date: September 23, 2015
Source: Commonwealth of Independent States (former USSR) (CIS)
Launch site: PLESETSK MISSILE AND SPACE COMPLEX (PKMTR)

Note: This is a ROCKET BODY
Your satellite tracking list
Your tracking list is empty




NASA's NSSDC Master Catalog

Two Line Element Set (TLE):
1 40923U 15050D   24325.37403137  .00000018  00000-0  28745-4 0  9992
2 40923  82.4861 284.6993 0202794   4.8569 355.4436 12.80432517428137
Source of the keplerian elements: AFSPC